Вернуться в каталог

CZ-6A DEB

АктивенSSO
NORAD 54273·DEBRIS·🇨🇳 China

Запущен Nov 11, 2022 с Taiyuan Satellite Launch Center

Loading…

Ближайшие Пролёты (ближайшие 24 часа)

TLE

СвежийSource: Space-Track

Эпоха: Sep 13, 2026, 11:47 UTC

1 54273U 22151Q   26256.49112833  .00001748  00000-0  77640-3 0  9991
2 54273  98.7926 271.5540 0024558  15.7150 344.4786 14.24142056198105

Отслеживайте CZ-6A DEB в реальном времени с AllMySat

Download on the App Store